Back to catalog

MMS 1

AliveScienceHEO
NORAD 40482·PAYLOAD·🇺🇸 United States

Launched Mar 13, 2015 from Cape Canaveral Space Force Station

Loading…

Next Passes (next 24 hours)

TLE

FreshSource: Space-Track

Epoch: Sep 14, 2026, 16:00 UTC

1 40482U 15011A   26257.66671296 -.00001854  00000-0  00000-0 0  9990
2 40482  72.9529 347.7738 8256880 169.3950  66.2300  0.28334835  1412

Track MMS 1 in real time with AllMySat

Download on the App Store